Weather History for Silver City, NM

Change the Weather History Date:

Wednesday, May 14, 2014

  Actual Average (KDMN) Record (KDMN)
Temperature  
Mean Temperature 50 °F 69 °F  
Max Temperature 64 °F 87 °F 98 °F (1959)
Min Temperature 37 °F 51 °F 37 °F (1983)
Degree Days  
Heating Degree Days 14    
Moisture  
Dew Point 16 °F    
Average Humidity 25    
Maximum Humidity 42    
Minimum Humidity 14    
Precipitation  
Precipitation 0.00 in 0.01 in 0.11 in (1973)
Month to date precipitation 0.31  
Year to date precipitation 2.29  
Sea Level Pressure  
Sea Level Pressure 30.40 in    
Wind  
Wind Speed 11 mph (SE)    
Max Wind Speed 21 mph    
Max Gust Speed 30 mph    
Visibility 10 miles    
Events      
T = Trace of Precipitation, MM = Missing Value Source: NWS Daily Summary

Daily Weather History Graph

Daily Weather History Graph

Search for Another Location

Airport:

Trip Planner

Search our weather history database for the weather conditions in past years. The results will help you decide how hot, cold, wet, or windy it might be!

Date:

Astronomy

May. 14, 2014 Rise Set
Actual Time 6:14 AM MDT 8:03 PM MDT
Civil Twilight 5:47 AM MDT 8:30 PM MDT
Nautical Twilight 5:15 AM MDT 9:03 PM MDT
Astronomical Twilight 4:40 AM MDT 9:38 PM MDT
Moon 8:13 PM MDT (5/14) 6:13 AM MDT (5/14)
Length of Visible Light 14h 43m
Length of Day
13h 49m
Full, 100% of the Moon is Illuminated
May 14
Full
May 14
Full
May 21
Last Quarter
May 28
New
Jun 5
First Quarter

Hourly Weather History & Observations

Time (MDT) Temp. Windchill Dew Point Humidity Pressure Visibility Wind Dir Wind Speed Gust Speed Precip Events Conditions
12:15 AM 50.0 °F - 17.6 °F 28% 30.40 in 3.0 mi East 15.0 mph 25.3 mph N/A   Haze
12:35 AM 48.2 °F - 19.4 °F 32% 30.41 in 4.0 mi East 13.8 mph - N/A   Haze
12:55 AM 48.2 °F - 19.4 °F 32% 30.42 in 7.0 mi East 12.7 mph 16.1 mph N/A   Clear
1:15 AM 48.2 °F - 19.4 °F 32% 30.41 in 10.0 mi East 11.5 mph - N/A   Clear
1:35 AM 48.2 °F - 19.4 °F 32% 30.41 in 10.0 mi East 11.5 mph - N/A   Clear
1:55 AM 46.4 °F 41.5 °F 19.4 °F 34% 30.41 in 10.0 mi East 10.4 mph - N/A   Clear
2:15 AM 46.4 °F 41.9 °F 19.4 °F 34% 30.41 in 10.0 mi SSE 9.2 mph - N/A   Clear
2:35 AM 44.6 °F 38.4 °F 17.6 °F 34% 30.41 in 10.0 mi SSE 12.7 mph - N/A   Clear
2:55 AM 44.6 °F 39.7 °F 17.6 °F 34% 30.42 in 10.0 mi SSE 9.2 mph - N/A   Clear
3:15 AM 42.8 °F 37.5 °F 15.8 °F 34% 30.43 in 10.0 mi SSE 9.2 mph - N/A   Clear
3:35 AM 41.0 °F 36.4 °F 15.8 °F 36% 30.43 in 10.0 mi SSE 6.9 mph - N/A   Clear
3:55 AM 41.0 °F 36.4 °F 15.8 °F 36% 30.43 in 10.0 mi SSE 6.9 mph - N/A   Clear
4:15 AM 39.2 °F 35.9 °F 15.8 °F 39% 30.45 in 10.0 mi SE 4.6 mph - N/A   Clear
4:35 AM 39.2 °F 33.6 °F 15.8 °F 39% 30.44 in 10.0 mi SE 8.1 mph - N/A   Clear
4:55 AM 39.2 °F 32.5 °F 15.8 °F 39% 30.44 in 10.0 mi SE 10.4 mph - N/A   Clear
5:15 AM 39.2 °F 34.2 °F 15.8 °F 39% 30.43 in 10.0 mi SE 6.9 mph - N/A   Clear
5:35 AM 37.4 °F 33.8 °F 15.8 °F 41% 30.43 in 10.0 mi SE 4.6 mph - N/A   Clear
5:55 AM 37.4 °F 34.9 °F 15.8 °F 41% 30.43 in 10.0 mi ENE 3.5 mph - N/A   Clear
6:15 AM 39.2 °F 34.2 °F 17.6 °F 42% 30.43 in 10.0 mi ESE 6.9 mph - N/A   Clear
6:35 AM 41.0 °F 35.8 °F 17.6 °F 39% 30.43 in 10.0 mi East 8.1 mph - N/A   Clear
6:55 AM 39.2 °F 35.9 °F 17.6 °F 42% 30.44 in 10.0 mi NW 4.6 mph - N/A   Clear
7:15 AM 44.6 °F - 17.6 °F 34% 30.45 in 10.0 mi Calm Calm - N/A   Clear
7:35 AM 44.6 °F - 17.6 °F 34% 30.45 in 10.0 mi Calm Calm - N/A   Clear
7:55 AM 50.0 °F - 17.6 °F 28% 30.46 in 10.0 mi ESE 10.4 mph - N/A   Clear
8:35 AM 51.8 °F - 17.6 °F 26% 30.46 in 10.0 mi SE 13.8 mph 19.6 mph N/A   Clear
8:55 AM 51.8 °F - 17.6 °F 26% 30.46 in 10.0 mi ESE 16.1 mph 19.6 mph N/A   Clear
9:15 AM 53.6 °F - 17.6 °F 24% 30.46 in 10.0 mi SE 17.3 mph 21.9 mph N/A   Clear
9:35 AM 53.6 °F - 17.6 °F 24% 30.46 in 10.0 mi SSE 11.5 mph 20.7 mph N/A   Clear
9:55 AM 55.4 °F - 17.6 °F 23% 30.46 in 10.0 mi East 13.8 mph - N/A   Clear
10:15 AM 55.4 °F - 17.6 °F 23% 30.46 in 10.0 mi SE 18.4 mph 24.2 mph N/A   Clear
10:55 AM 55.4 °F - 17.6 °F 23% 30.46 in 10.0 mi SE 13.8 mph 26.5 mph N/A   Clear
11:35 AM 57.2 °F - 17.6 °F 21% 30.44 in 10.0 mi SE 17.3 mph 25.3 mph N/A   Clear
11:55 AM 57.2 °F - 17.6 °F 21% 30.43 in 10.0 mi ESE 19.6 mph 25.3 mph N/A   Clear
12:15 PM 59.0 °F - 17.6 °F 20% 30.43 in 10.0 mi SE 20.7 mph 29.9 mph N/A   Clear
12:35 PM 59.0 °F - 17.6 °F 20% 30.43 in 10.0 mi ESE 13.8 mph - N/A   Clear
12:55 PM 57.2 °F - 17.6 °F 21% 30.42 in 10.0 mi SE 15.0 mph 23.0 mph N/A   Clear
1:15 PM 59.0 °F - 15.8 °F 19% 30.41 in 10.0 mi SE 18.4 mph 23.0 mph N/A   Clear
1:35 PM 59.0 °F - 15.8 °F 19% 30.40 in 10.0 mi SE 17.3 mph 26.5 mph N/A   Clear
1:55 PM 60.8 °F - 15.8 °F 17% 30.40 in 10.0 mi ESE 15.0 mph 24.2 mph N/A   Clear
2:15 PM 60.8 °F - 15.8 °F 17% 30.39 in 10.0 mi SSE 15.0 mph 24.2 mph N/A   Clear
2:55 PM 62.6 °F - 15.8 °F 16% 30.38 in 10.0 mi SE 12.7 mph 23.0 mph N/A   Clear
3:15 PM 62.6 °F - 15.8 °F 16% 30.37 in 10.0 mi SSE 16.1 mph 25.3 mph N/A   Clear
3:35 PM 62.6 °F - 15.8 °F 16% 30.35 in 10.0 mi SSE 12.7 mph 23.0 mph N/A   Clear
3:55 PM 62.6 °F - 15.8 °F 16% 30.35 in 10.0 mi SE 12.7 mph 24.2 mph N/A   Clear
4:15 PM 64.4 °F - 15.8 °F 15% 30.34 in 10.0 mi SE 12.7 mph 20.7 mph N/A   Clear
4:35 PM 64.4 °F - 15.8 °F 15% 30.34 in 10.0 mi ESE 10.4 mph 23.0 mph N/A   Clear
4:55 PM 64.4 °F - 15.8 °F 15% 30.33 in 10.0 mi SE 19.6 mph 25.3 mph N/A   Clear
5:15 PM 64.4 °F - 14.0 °F 14% 30.33 in 10.0 mi SE 16.1 mph 24.2 mph N/A   Clear
5:35 PM 64.4 °F - 14.0 °F 14% 30.32 in 10.0 mi South 17.3 mph 24.2 mph N/A   Clear
5:55 PM 64.4 °F - 14.0 °F 14% 30.31 in 10.0 mi South 12.7 mph 19.6 mph N/A   Clear
6:15 PM 62.6 °F - 14.0 °F 15% 30.31 in 10.0 mi SE 16.1 mph 20.7 mph N/A   Clear
6:35 PM 62.6 °F - 14.0 °F 15% 30.32 in 10.0 mi South 16.1 mph - N/A   Clear
6:55 PM 62.6 °F - 14.0 °F 15% 30.32 in 10.0 mi SSE 9.2 mph 18.4 mph N/A   Clear
7:15 PM 60.8 °F - 14.0 °F 16% 30.31 in 10.0 mi SSE 10.4 mph - N/A   Clear
7:35 PM 60.8 °F - 14.0 °F 16% 30.32 in 10.0 mi SSE 12.7 mph - N/A   Clear
7:55 PM 59.0 °F - 12.2 °F 16% 30.33 in 10.0 mi SSE 11.5 mph - N/A   Clear
8:15 PM 57.2 °F - 12.2 °F 17% 30.33 in 10.0 mi SSE 9.2 mph - N/A   Clear
8:35 PM 55.4 °F - 10.4 °F 17% 30.34 in 10.0 mi SE 6.9 mph - N/A   Clear
8:55 PM 53.6 °F - 10.4 °F 18% 30.35 in 10.0 mi SE 8.1 mph - N/A   Clear
9:15 PM 53.6 °F - 10.4 °F 18% 30.35 in 10.0 mi ESE 5.8 mph - N/A   Clear
9:35 PM 53.6 °F - 10.4 °F 18% 30.37 in 10.0 mi ESE 5.8 mph - N/A   Clear
9:55 PM 53.6 °F - 10.4 °F 18% 30.37 in 10.0 mi East 5.8 mph - N/A   Clear
10:15 PM 50.0 °F - 10.4 °F 20% 30.37 in 10.0 mi East 6.9 mph - N/A   Clear
10:35 PM 50.0 °F - 12.2 °F 22% 30.37 in 10.0 mi East 6.9 mph - N/A   Clear
10:55 PM 50.0 °F - 12.2 °F 22% 30.38 in 10.0 mi ESE 6.9 mph - N/A   Clear
11:15 PM 50.0 °F - 10.4 °F 20% 30.38 in 10.0 mi ESE 5.8 mph - N/A   Clear
11:35 PM 48.2 °F - 10.4 °F 22% 30.38 in 10.0 mi ESE 4.6 mph - N/A   Clear
11:55 PM 44.6 °F - 8.6 °F 23% 30.39 in 10.0 mi Calm Calm - N/A   Clear